sat.trackr.live / text

‹ back to catalog

STARLINK-2408

NORAD 47823 · 2021-018AN

PAYLOAD ACTIVE UNKNOWN

§ Identity

Operator
Country
US
Launch date
2021-03-11
Launch site
AFETR
Launch vehicle
Mass (kg)
RCS (m²)

Purposes: comms

External: N2YO · Heavens-Above · Gunter

§ Orbital elements

Epoch: 2026-09-20T00:04:14.784096Z

Period
94.01 min
Inclination
53.1592°
Eccentricity
0.0001125
Mean motion
15.31709052 rev/d
Perigee alt
469.9 km
Apogee alt
471.5 km
Semi-major
6,848.9 km
B*
3.5616e-5
RAAN
73.7589°
Arg perigee
76.4967°
Mean anomaly
283.6159°
Rev number
30,627

§ Raw data

STARLINK-24081 47823U 21018AN  26263.00294889  .00000741  00000+0  35616-4 0  99912 47823  53.1592  73.7589 0001125  76.4967 283.6159 15.31709052306273

JSON: /api/v1/satellites/47823 · /tle

For live sub-satellite position, see the globe view (requires WebGL).

§ Visibility from observer

Set your observer location to see the next 7 days of passes ≥ 10°. The values pass through the URL so the page stays shareable.

No JS? Fill the form by hand. The geolocation button needs JavaScript.